Flag for Germany Weather past 2 weeks in Potsdam, Brandenburg, Germany

Now
49 °F

Overcast.


Feels Like: 46 °F
Forecast: 49 / 51 °F
Wind: 8 mph from Southwest

Location: Potsdam

Current Time: Dec 22, 2014 at 10:02:27 PM

Latest Report: Dec 22, 2014 at 9:00 PM


Visibility: 17 mi

Pressure: 29.82 "Hg

Humidity: 96%

Dew point: 48 °F

Location of PotsdamLocation

Historic Weather in Potsdam — Graph

°F

Potsdam temperature yesterday

Maximum temperature yesterday: 43 °F (at 1:00 PM)
Minimum temperature yesterday: 39 °F (at 12:00 AM)
Average temperature yesterday: 41 °F

Past Weeks' High & Low Weather Summary

 TemperatureHumidityPressure
High53 °F (Dec 19, 2:00 AM)100% (Dec 8, 9:00 AM)30.39 "Hg (Dec 8, 9:00 AM)
Low28 °F (Dec 9, 5:00 AM)70% (Dec 20, 12:00 PM)29.38 "Hg (Dec 12, 6:00 PM)
Average40 °F90%29.89 "Hg
* Reported Dec 7 9:00 PM — Dec 22 9:00 PM, Potsdam, Weather by CustomWeather, © 2014

Note: Actual official high and low records may vary slightly from our data, if they occured in-between our weather recording intervals... More about our weather records

Advertising

Potsdam weather history for previous 24 hours

 ConditionsComfort  
Time TempWeatherWind HumidityBarometerVisibility
9:00 PM
Dec 22
49 °FOvercast.8 mph96%29.82 "Hg17 mi
8:00 PM49 °FOvercast.8 mph94%29.84 "Hg19 mi
7:00 PM49 °FRain. Low clouds.8 mph96%29.83 "Hg22 mi
6:00 PM49 °FRain. Overcast.10 mph94%29.82 "Hg10 mi
5:00 PM51 °FOvercast.10 mph83%29.80 "Hg25 mi
4:00 PM50 °FLight rain. Overcast.13 mph86%29.79 "Hg15 mi
3:00 PM50 °FLight rain. Overcast.13 mph87%29.78 "Hg22 mi
2:00 PM50 °FDrizzle. Overcast.12 mph86%29.79 "Hg19 mi
1:00 PM50 °FOvercast.12 mph82%29.80 "Hg19 mi
12:00 PM50 °FOvercast.10 mph83%29.82 "Hg19 mi
11:00 AM50 °FOvercast.12 mph86%29.82 "Hg16 mi
10:00 AM49 °FRain. Overcast.12 mph91%29.84 "Hg14 mi
9:00 AM49 °FOvercast.13 mph90%29.84 "Hg17 mi
8:00 AM47 °FRain. Overcast.10 mph96%29.84 "Hg4 mi
7:00 AM48 °FLight rain. Overcast.13 mph91%29.83 "Hg17 mi
6:00 AM46 °FLight rain. Overcast.12 mph95%29.85 "Hg14 mi
5:00 AM46 °FLight rain. Overcast.10 mph95%29.86 "Hg15 mi
4:00 AM47 °FOvercast.10 mph84%29.88 "Hg16 mi
3:00 AM46 °FOvercast.12 mph84%29.90 "Hg16 mi
2:00 AM44 °FRain. Overcast.9 mph90%29.92 "Hg16 mi
1:00 AM43 °FRain. Overcast.9 mph92%29.95 "Hg17 mi
12:00 AM44 °FLight rain. Overcast.9 mph87%29.98 "Hg22 mi
11:00 PM
Dec 21
43 °FLight rain. Overcast.9 mph88%30.01 "Hg22 mi
10:00 PM42 °FOvercast.8 mph92%30.05 "Hg22 mi
Weather by CustomWeather, © 2014

See weather overviewHow to use our weather pages